Time,TemperatureF,DewpointF,PressureIn,WindDirection,WindDirectionDegrees,WindSpeedMPH,WindSpeedGustMPH,Humidity,HourlyPrecipIn,Conditions,Clouds,dailyrainin,SoftwareType,DateUTC
2013-08-06 00:00:00,63.4,59.8,29.68,West,264,1.0,8.0,88,0.00,,SKC,0.16,VWS V14.01,2013-08-06 05:00:00,
2013-08-06 00:03:00,63.3,59.7,29.68,West,263,1.0,1.0,88,0.00,,SKC,0.00,VWS V14.01,2013-08-06 05:03:00,
2013-08-06 00:08:00,63.2,59.9,29.68,West,265,2.0,5.0,89,0.00,,SKC,0.00,VWS V14.01,2013-08-06 05:08:00,
2013-08-06 00:13:00,63.0,59.4,29.68,West,265,0.0,5.0,88,0.00,,SKC,0.00,VWS V14.01,2013-08-06 05:13:00,
2013-08-06 00:18:00,62.8,59.2,29.68,West,265,1.0,5.0,88,0.00,,SKC,0.00,VWS V14.01,2013-08-06 05:18:00,
2013-08-06 00:23:00,62.5,58.9,29.68,West,265,0.0,5.0,88,0.00,,SKC,0.00,VWS V14.01,2013-08-06 05:23:00,
2013-08-06 00:28:00,62.4,58.8,29.68,West,265,0.0,5.0,88,0.00,,SKC,0.00,VWS V14.01,2013-08-06 05:28:00,
2013-08-06 00:30:00,64.4,61.1,29.68,West,271,8.0,8.0,89,0.00,,SKC,0.16,VWS V14.01,2013-08-06 05:30:00,
2013-08-06 00:33:00,62.2,58.9,29.68,West,265,3.0,3.0,89,0.00,,SKC,0.00,VWS V14.01,2013-08-06 05:33:00,
2013-08-06 00:38:00,62.1,58.8,29.68,West,265,0.0,3.0,89,0.00,,SKC,0.00,VWS V14.01,2013-08-06 05:38:00,
2013-08-06 00:43:00,61.9,58.6,29.68,West,265,3.0,4.0,89,0.00,,SKC,0.00,VWS V14.01,2013-08-06 05:43:00,
2013-08-06 00:48:00,61.8,58.2,29.67,West,265,0.0,4.0,88,0.00,,SKC,0.00,VWS V14.01,2013-08-06 05:48:00,
2013-08-06 00:54:00,61.6,58.3,29.66,West,265,0.0,4.0,89,0.00,,SKC,0.00,VWS V14.01,2013-08-06 05:54:00,
2013-08-06 00:59:00,61.5,58.2,29.66,West,265,0.0,4.0,89,0.00,,SKC,0.00,VWS V14.01,2013-08-06 05:59:00,
2013-08-06 01:00:00,63.4,59.8,29.68,West,264,1.0,8.0,88,0.00,,SKC,0.16,VWS V14.01,2013-08-06 06:00:00,
2013-08-06 01:04:00,61.3,58.0,29.66,West,265,0.0,0.0,89,0.00,,SKC,0.00,VWS V14.01,2013-08-06 06:04:00,
2013-08-06 01:09:00,61.1,57.8,29.66,West,265,0.0,0.0,89,0.00,,SKC,0.00,VWS V14.01,2013-08-06 06:09:00,
2013-08-06 01:14:00,60.9,57.6,29.66,West,265,0.0,0.0,89,0.00,,SKC,0.00,VWS V14.01,2013-08-06 06:14:00,
2013-08-06 01:19:00,60.6,57.3,29.66,West,264,0.0,6.0,89,0.00,,SKC,0.00,VWS V14.01,2013-08-06 06:19:00,
2013-08-06 01:24:00,60.4,57.5,29.66,West,264,0.0,6.0,90,0.00,,SKC,0.00,VWS V14.01,2013-08-06 06:24:00,
2013-08-06 01:29:00,60.2,57.3,29.66,West,264,0.0,6.0,90,0.00,,SKC,0.00,VWS V14.01,2013-08-06 06:29:00,
2013-08-06 01:30:00,62.3,59.0,29.68,West,265,0.0,5.0,89,0.00,,SKC,0.00,VWS V14.01,2013-08-06 06:30:00,
2013-08-06 01:34:00,60.0,57.1,29.67,West,264,0.0,0.0,90,0.00,,SKC,0.00,VWS V14.01,2013-08-06 06:34:00,
2013-08-06 01:39:00,59.8,57.2,29.67,West,264,0.0,1.0,91,0.00,,SKC,0.00,VWS V14.01,2013-08-06 06:39:00,
2013-08-06 01:44:00,59.5,56.9,29.66,West,264,0.0,1.0,91,0.00,,SKC,0.00,VWS V14.01,2013-08-06 06:44:00,
2013-08-06 01:49:00,59.2,56.3,29.66,West,264,0.0,1.0,90,0.00,,SKC,0.00,VWS V14.01,2013-08-06 06:49:00,
2013-08-06 01:54:00,59.0,56.1,29.67,West,264,0.0,1.0,90,0.00,,SKC,0.00,VWS V14.01,2013-08-06 06:54:00,
2013-08-06 01:59:00,59.0,56.4,29.67,West,264,0.0,1.0,91,0.00,,SKC,0.00,VWS V14.01,2013-08-06 06:59:00,
2013-08-06 02:00:00,61.4,58.1,29.66,West,265,0.0,4.0,89,0.00,,SKC,0.00,VWS V14.01,2013-08-06 07:00:00,
2013-08-06 02:04:00,59.0,56.4,29.67,West,264,0.0,1.0,91,0.00,,SKC,0.00,VWS V14.01,2013-08-06 07:04:00,
2013-08-06 02:09:00,58.7,56.1,29.67,West,264,0.0,1.0,91,0.00,,SKC,0.00,VWS V14.01,2013-08-06 07:09:00,
2013-08-06 02:14:00,58.6,56.3,29.67,West,264,0.0,1.0,92,0.00,,SKC,0.00,VWS V14.01,2013-08-06 07:14:00,
2013-08-06 02:19:00,58.4,56.1,29.66,West,264,0.0,4.0,92,0.00,,SKC,0.00,VWS V14.01,2013-08-06 07:19:00,
2013-08-06 02:24:00,58.3,56.0,29.66,West,264,0.0,5.0,92,0.00,,SKC,0.00,VWS V14.01,2013-08-06 07:24:00,
2013-08-06 02:29:00,58.2,55.9,29.65,West,264,0.0,5.0,92,0.00,,SKC,0.00,VWS V14.01,2013-08-06 07:29:00,
2013-08-06 02:30:00,60.1,57.2,29.66,West,264,0.0,6.0,90,0.00,,SKC,0.00,VWS V14.01,2013-08-06 07:30:00,
2013-08-06 02:34:00,58.0,55.7,29.65,West,264,0.0,0.0,92,0.00,,SKC,0.00,VWS V14.01,2013-08-06 07:34:00,
2013-08-06 02:39:00,57.8,55.5,29.65,West,264,0.0,0.0,92,0.00,,SKC,0.00,VWS V14.01,2013-08-06 07:39:00,
2013-08-06 02:44:00,57.6,55.3,29.65,West,264,0.0,0.0,92,0.00,,SKC,0.00,VWS V14.01,2013-08-06 07:44:00,
2013-08-06 02:49:00,57.5,55.2,29.65,West,264,0.0,0.0,92,0.00,,SKC,0.00,VWS V14.01,2013-08-06 07:49:00,
2013-08-06 02:54:00,57.4,55.4,29.65,West,264,0.0,0.0,93,0.00,,SKC,0.00,VWS V14.01,2013-08-06 07:54:00,
2013-08-06 02:59:00,57.4,55.4,29.65,West,264,0.0,0.0,93,0.00,,SKC,0.00,VWS V14.01,2013-08-06 07:59:00,
2013-08-06 03:00:00,59.0,56.4,29.67,West,264,0.0,1.0,91,0.00,,SKC,0.00,VWS V14.01,2013-08-06 08:00:00,
2013-08-06 03:04:00,57.3,55.3,29.65,West,264,0.0,0.0,93,0.00,,SKC,0.00,VWS V14.01,2013-08-06 08:04:00,
2013-08-06 03:09:00,57.2,55.2,29.65,West,264,0.0,0.0,93,0.00,,SKC,0.00,VWS V14.01,2013-08-06 08:09:00,
2013-08-06 03:14:00,57.1,55.1,29.65,West,264,0.0,0.0,93,0.00,,SKC,0.00,VWS V14.01,2013-08-06 08:14:00,
2013-08-06 03:19:00,57.1,55.1,29.65,West,264,0.0,0.0,93,0.00,,SKC,0.00,VWS V14.01,2013-08-06 08:19:00,
2013-08-06 03:25:00,56.9,54.9,29.65,West,264,0.0,0.0,93,0.00,,SKC,0.00,VWS V14.01,2013-08-06 08:25:00,
2013-08-06 03:30:00,56.8,54.8,29.65,West,264,0.0,0.0,93,0.00,,SKC,0.00,VWS V14.01,2013-08-06 08:30:00,
2013-08-06 03:35:00,56.8,54.8,29.66,West,264,0.0,1.0,93,0.00,,SKC,0.00,VWS V14.01,2013-08-06 08:35:00,
2013-08-06 03:40:00,56.9,55.2,29.66,West,264,0.0,1.0,94,0.00,,SKC,0.00,VWS V14.01,2013-08-06 08:40:00,
2013-08-06 03:45:00,56.9,54.9,29.65,West,264,0.0,1.0,93,0.00,,SKC,0.00,VWS V14.01,2013-08-06 08:45:00,
2013-08-06 03:50:00,56.8,55.1,29.65,West,264,0.0,1.0,94,0.00,,SKC,0.00,VWS V14.01,2013-08-06 08:50:00,
2013-08-06 03:55:00,56.7,55.0,29.65,West,264,0.0,1.0,94,0.00,,SKC,0.00,VWS V14.01,2013-08-06 08:55:00,
2013-08-06 04:00:00,56.7,55.0,29.65,West,264,0.0,1.0,94,0.00,,SKC,0.00,VWS V14.01,2013-08-06 09:00:00,
2013-08-06 04:05:00,56.6,54.6,29.66,West,264,0.0,0.0,93,0.00,,SKC,0.00,VWS V14.01,2013-08-06 09:05:00,
2013-08-06 04:10:00,56.4,54.4,29.66,West,264,0.0,0.0,93,0.00,,SKC,0.00,VWS V14.01,2013-08-06 09:10:00,
2013-08-06 04:15:00,56.4,54.7,29.66,West,264,0.0,0.0,94,0.00,,SKC,0.00,VWS V14.01,2013-08-06 09:15:00,
2013-08-06 04:20:00,56.4,54.7,29.66,West,264,0.0,0.0,94,0.00,,SKC,0.00,VWS V14.01,2013-08-06 09:20:00,
2013-08-06 04:25:00,56.3,54.6,29.66,West,264,0.0,1.0,94,0.00,,SKC,0.00,VWS V14.01,2013-08-06 09:25:00,
2013-08-06 04:30:00,56.2,54.5,29.65,West,264,0.0,1.0,94,0.00,,SKC,0.00,VWS V14.01,2013-08-06 09:30:00,
2013-08-06 04:35:00,56.2,54.5,29.65,West,264,0.0,0.0,94,0.00,,SKC,0.00,VWS V14.01,2013-08-06 09:35:00,
2013-08-06 04:40:00,56.2,54.5,29.65,West,264,0.0,0.0,94,0.00,,SKC,0.00,VWS V14.01,2013-08-06 09:40:00,
2013-08-06 04:45:00,56.2,54.5,29.65,West,264,0.0,1.0,94,0.00,,SKC,0.00,VWS V14.01,2013-08-06 09:45:00,
2013-08-06 04:50:00,56.1,54.4,29.64,West,264,0.0,1.0,94,0.00,,SKC,0.00,VWS V14.01,2013-08-06 09:50:00,
2013-08-06 04:55:00,56.0,54.3,29.64,West,264,0.0,1.0,94,0.00,,SKC,0.00,VWS V14.01,2013-08-06 09:55:00,
2013-08-06 05:00:00,56.0,54.3,29.64,West,264,0.0,1.0,94,0.00,,SKC,0.00,VWS V14.01,2013-08-06 10:00:00,
2013-08-06 05:05:00,55.9,54.2,29.64,West,264,0.0,0.0,94,0.00,,SKC,0.00,VWS V14.01,2013-08-06 10:05:00,
2013-08-06 05:10:00,55.8,54.1,29.65,West,264,0.0,0.0,94,0.00,,SKC,0.00,VWS V14.01,2013-08-06 10:10:00,
2013-08-06 05:15:00,55.6,53.9,29.65,West,264,0.0,1.0,94,0.00,,SKC,0.00,VWS V14.01,2013-08-06 10:15:00,
2013-08-06 05:20:00,55.5,53.8,29.65,West,264,0.0,1.0,94,0.00,,SKC,0.00,VWS V14.01,2013-08-06 10:20:00,
2013-08-06 05:25:00,55.4,53.7,29.64,West,264,0.0,1.0,94,0.00,,SKC,0.00,VWS V14.01,2013-08-06 10:25:00,
2013-08-06 05:30:00,55.4,53.7,29.65,West,264,0.0,1.0,94,0.00,,SKC,0.00,VWS V14.01,2013-08-06 10:30:00,
2013-08-06 05:35:00,55.2,53.5,29.66,West,264,0.0,0.0,94,0.00,,SKC,0.00,VWS V14.01,2013-08-06 10:35:00,
2013-08-06 05:40:00,55.2,53.5,29.66,West,264,0.0,0.0,94,0.00,,SKC,0.00,VWS V14.01,2013-08-06 10:40:00,
2013-08-06 05:45:00,55.3,53.6,29.66,West,264,0.0,0.0,94,0.00,,SKC,0.00,VWS V14.01,2013-08-06 10:45:00,
2013-08-06 05:50:00,55.3,53.6,29.66,West,264,0.0,1.0,94,0.00,,SKC,0.00,VWS V14.01,2013-08-06 10:50:00,
2013-08-06 05:56:00,55.2,53.5,29.66,West,264,0.0,1.0,94,0.00,,SKC,0.00,VWS V14.01,2013-08-06 10:56:00,
2013-08-06 06:00:00,56.0,54.3,29.64,West,264,0.0,1.0,94,0.00,,SKC,0.00,VWS V14.01,2013-08-06 11:00:00,
2013-08-06 06:01:00,55.2,53.8,29.66,West,264,0.0,0.0,95,0.00,,SKC,0.00,VWS V14.01,2013-08-06 11:01:00,
2013-08-06 06:06:00,55.3,53.6,29.66,West,264,0.0,0.0,94,0.00,,SKC,0.00,VWS V14.01,2013-08-06 11:06:00,
2013-08-06 06:11:00,55.3,53.9,29.66,West,264,0.0,0.0,95,0.00,,SKC,0.00,VWS V14.01,2013-08-06 11:11:00,
2013-08-06 06:16:00,55.4,54.0,29.66,West,264,0.0,0.0,95,0.00,,SKC,0.00,VWS V14.01,2013-08-06 11:16:00,
2013-08-06 06:21:00,55.5,54.1,29.66,West,264,0.0,0.0,95,0.00,,SKC,0.00,VWS V14.01,2013-08-06 11:21:00,
2013-08-06 06:26:00,55.5,54.1,29.66,West,264,0.0,0.0,95,0.00,,SKC,0.00,VWS V14.01,2013-08-06 11:26:00,
2013-08-06 06:30:00,55.4,53.7,29.65,West,264,0.0,1.0,94,0.00,,SKC,0.00,VWS V14.01,2013-08-06 11:30:00,
2013-08-06 06:31:00,55.5,54.1,29.66,West,264,0.0,0.0,95,0.00,,SKC,0.00,VWS V14.01,2013-08-06 11:31:00,
2013-08-06 06:36:00,55.5,54.1,29.65,West,264,0.0,0.0,95,0.00,,SKC,0.00,VWS V14.01,2013-08-06 11:36:00,
2013-08-06 06:41:00,55.5,54.1,29.66,West,264,0.0,0.0,95,0.00,,SKC,0.00,VWS V14.01,2013-08-06 11:41:00,
2013-08-06 06:46:00,55.3,53.6,29.66,WSW,258,0.0,0.0,94,0.00,,SKC,0.00,VWS V14.01,2013-08-06 11:46:00,
2013-08-06 06:51:00,55.2,53.5,29.66,WSW,258,0.0,0.0,94,0.00,,SKC,0.00,VWS V14.01,2013-08-06 11:51:00,
2013-08-06 06:56:00,55.2,53.5,29.67,WSW,258,0.0,0.0,94,0.00,,SKC,0.00,VWS V14.01,2013-08-06 11:56:00,
2013-08-06 07:00:00,55.2,53.8,29.66,West,264,0.0,1.0,95,0.00,,SKC,0.00,VWS V14.01,2013-08-06 12:00:00,
2013-08-06 07:01:00,55.3,53.6,29.67,WSW,258,0.0,0.0,94,0.00,,SKC,0.00,VWS V14.01,2013-08-06 12:01:00,
2013-08-06 07:06:00,55.4,53.7,29.67,WSW,258,0.0,0.0,94,0.00,,SKC,0.00,VWS V14.01,2013-08-06 12:06:00,
2013-08-06 07:11:00,55.5,54.1,29.67,WSW,258,0.0,0.0,95,0.00,,SKC,0.00,VWS V14.01,2013-08-06 12:11:00,
2013-08-06 07:16:00,55.7,54.3,29.67,ESE,121,0.0,0.0,95,0.00,,SKC,0.00,VWS V14.01,2013-08-06 12:16:00,
2013-08-06 07:21:00,55.8,54.4,29.67,NNE,29,0.0,0.0,95,0.00,,SKC,0.00,VWS V14.01,2013-08-06 12:21:00,
2013-08-06 07:26:00,56.0,54.6,29.67,NNE,29,0.0,0.0,95,0.00,,SKC,0.00,VWS V14.01,2013-08-06 12:26:00,
2013-08-06 07:30:00,55.5,54.1,29.66,West,264,0.0,0.0,95,0.00,,SKC,0.00,VWS V14.01,2013-08-06 12:30:00,
2013-08-06 07:31:00,56.3,54.9,29.67,NNE,29,0.0,0.0,95,0.00,,SKC,0.00,VWS V14.01,2013-08-06 12:31:00,
2013-08-06 07:36:00,56.4,55.0,29.67,NNE,29,0.0,0.0,95,0.00,,SKC,0.00,VWS V14.01,2013-08-06 12:36:00,
2013-08-06 07:41:00,56.7,55.3,29.67,NNE,29,0.0,0.0,95,0.00,,SKC,0.00,VWS V14.01,2013-08-06 12:41:00,
2013-08-06 07:46:00,56.7,55.3,29.67,NNE,29,0.0,0.0,95,0.00,,SKC,0.00,VWS V14.01,2013-08-06 12:46:00,
2013-08-06 07:51:00,56.9,55.5,29.67,NNE,29,0.0,0.0,95,0.00,,SKC,0.00,VWS V14.01,2013-08-06 12:51:00,
2013-08-06 07:56:00,57.0,55.6,29.66,NNE,29,0.0,0.0,95,0.00,,SKC,0.00,VWS V14.01,2013-08-06 12:56:00,
2013-08-06 08:00:00,55.3,53.6,29.67,WSW,258,0.0,0.0,94,0.00,,SKC,0.00,VWS V14.01,2013-08-06 13:00:00,
2013-08-06 08:01:00,57.0,55.3,29.66,NNE,29,0.0,0.0,94,0.00,,SKC,0.00,VWS V14.01,2013-08-06 13:01:00,
2013-08-06 08:06:00,57.1,55.4,29.67,NNE,29,0.0,0.0,94,0.00,,SKC,0.00,VWS V14.01,2013-08-06 13:06:00,
2013-08-06 08:11:00,57.3,55.6,29.67,NNE,29,0.0,0.0,94,0.00,,SKC,0.00,VWS V14.01,2013-08-06 13:11:00,
2013-08-06 08:16:00,57.5,55.8,29.67,NNE,29,0.0,0.0,94,0.00,,SKC,0.00,VWS V14.01,2013-08-06 13:16:00,
2013-08-06 08:22:00,57.7,56.0,29.67,NNE,29,0.0,1.0,94,0.00,,SKC,0.00,VWS V14.01,2013-08-06 13:22:00,
2013-08-06 08:27:00,57.9,56.2,29.67,WNW,294,4.0,7.0,94,0.00,,SKC,0.00,VWS V14.01,2013-08-06 13:27:00,
2013-08-06 08:30:00,56.2,54.8,29.67,NNE,29,0.0,0.0,95,0.00,,SKC,0.00,VWS V14.01,2013-08-06 13:30:00,
2013-08-06 08:32:00,58.1,56.4,29.67,WNW,294,0.0,0.0,94,0.00,,SKC,0.00,VWS V14.01,2013-08-06 13:32:00,
2013-08-06 08:37:00,58.3,56.3,29.66,WNW,294,0.0,1.0,93,0.00,,SKC,0.00,VWS V14.01,2013-08-06 13:37:00,
2013-08-06 08:42:00,58.5,56.5,29.66,WNW,294,0.0,1.0,93,0.00,,SKC,0.00,VWS V14.01,2013-08-06 13:42:00,
2013-08-06 08:47:00,58.7,56.7,29.66,WNW,292,0.0,1.0,93,0.00,,SKC,0.00,VWS V14.01,2013-08-06 13:47:00,
2013-08-06 08:52:00,59.0,57.0,29.66,WNW,292,0.0,1.0,93,0.00,,SKC,0.00,VWS V14.01,2013-08-06 13:52:00,
2013-08-06 08:57:00,59.0,57.0,29.66,WNW,292,0.0,1.0,93,0.00,,SKC,0.00,VWS V14.01,2013-08-06 13:57:00,
2013-08-06 09:00:00,57.1,55.7,29.66,NNE,29,0.0,0.0,95,0.00,,SKC,0.00,VWS V14.01,2013-08-06 14:00:00,
2013-08-06 09:02:00,59.0,57.0,29.67,WNW,292,0.0,0.0,93,0.00,,SKC,0.00,VWS V14.01,2013-08-06 14:02:00,
2013-08-06 09:07:00,59.4,57.1,29.66,WNW,292,0.0,0.0,92,0.00,,SKC,0.00,VWS V14.01,2013-08-06 14:07:00,
2013-08-06 09:12:00,59.6,57.6,29.66,WNW,292,0.0,0.0,93,0.00,,SKC,0.00,VWS V14.01,2013-08-06 14:12:00,
2013-08-06 09:17:00,60.0,57.7,29.67,WNW,292,0.0,0.0,92,0.00,,SKC,0.00,VWS V14.01,2013-08-06 14:17:00,
2013-08-06 09:22:00,60.1,57.8,29.67,WNW,292,0.0,0.0,92,0.00,,SKC,0.00,VWS V14.01,2013-08-06 14:22:00,
2013-08-06 09:27:00,60.4,58.1,29.67,WNW,292,0.0,1.0,92,0.00,,SKC,0.00,VWS V14.01,2013-08-06 14:27:00,
2013-08-06 09:30:00,58.1,56.4,29.67,WNW,294,0.0,7.0,94,0.00,,SKC,0.00,VWS V14.01,2013-08-06 14:30:00,
2013-08-06 09:32:00,60.6,58.0,29.67,WNW,292,0.0,0.0,91,0.00,,SKC,0.00,VWS V14.01,2013-08-06 14:32:00,
2013-08-06 09:37:00,60.8,58.2,29.67,WNW,292,0.0,1.0,91,0.00,,SKC,0.00,VWS V14.01,2013-08-06 14:37:00,
2013-08-06 09:42:00,61.1,58.5,29.67,WNW,292,0.0,1.0,91,0.00,,SKC,0.00,VWS V14.01,2013-08-06 14:42:00,
2013-08-06 09:47:00,61.4,58.8,29.67,WNW,292,0.0,1.0,91,0.00,,SKC,0.00,VWS V14.01,2013-08-06 14:47:00,
2013-08-06 09:52:00,61.6,58.6,29.67,WNW,292,0.0,1.0,90,0.00,,SKC,0.00,VWS V14.01,2013-08-06 14:52:00,
2013-08-06 09:57:00,61.9,58.9,29.67,WNW,292,0.0,1.0,90,0.00,,SKC,0.00,VWS V14.01,2013-08-06 14:57:00,
2013-08-06 10:00:00,59.0,57.0,29.67,WNW,292,0.0,1.0,93,0.00,,SKC,0.00,VWS V14.01,2013-08-06 15:00:00,
2013-08-06 10:02:00,62.3,59.3,29.68,West,266,0.0,0.0,90,0.00,,SKC,0.00,VWS V14.01,2013-08-06 15:02:00,
2013-08-06 10:07:00,62.7,59.7,29.67,West,266,0.0,0.0,90,0.00,,SKC,0.00,VWS V14.01,2013-08-06 15:07:00,
2013-08-06 10:12:00,63.2,59.9,29.66,West,266,0.0,0.0,89,0.00,,SKC,0.00,VWS V14.01,2013-08-06 15:12:00,
2013-08-06 10:17:00,63.5,60.2,29.66,West,259,0.0,1.0,89,0.00,,SKC,0.00,VWS V14.01,2013-08-06 15:17:00,
2013-08-06 10:22:00,64.0,60.7,29.66,West,259,0.0,1.0,89,0.00,,SKC,0.00,VWS V14.01,2013-08-06 15:22:00,
2013-08-06 10:27:00,64.6,61.3,29.66,West,259,0.0,1.0,89,0.00,,SKC,0.00,VWS V14.01,2013-08-06 15:27:00,
2013-08-06 10:30:00,60.5,57.9,29.67,WNW,292,0.0,1.0,91,0.00,,SKC,0.00,VWS V14.01,2013-08-06 15:30:00,
2013-08-06 10:32:00,65.0,61.0,29.65,West,259,0.0,1.0,87,0.00,,SKC,0.00,VWS V14.01,2013-08-06 15:32:00,
2013-08-06 10:37:00,65.3,61.3,29.65,West,259,0.0,1.0,87,0.00,,SKC,0.00,VWS V14.01,2013-08-06 15:37:00,
2013-08-06 10:42:00,65.8,61.8,29.65,West,259,0.0,1.0,87,0.00,,SKC,0.00,VWS V14.01,2013-08-06 15:42:00,
2013-08-06 10:47:00,66.3,62.0,29.65,WSW,257,0.0,1.0,86,0.00,,SKC,0.00,VWS V14.01,2013-08-06 15:47:00,
2013-08-06 10:53:00,66.6,61.6,29.65,SE,140,0.0,5.0,84,0.00,,SKC,0.00,VWS V14.01,2013-08-06 15:53:00,
2013-08-06 10:58:00,66.7,61.4,29.65,SE,140,0.0,5.0,83,0.00,,SKC,0.00,VWS V14.01,2013-08-06 15:58:00,
2013-08-06 11:00:00,62.1,59.1,29.67,West,266,0.0,1.0,90,0.00,,SKC,0.00,VWS V14.01,2013-08-06 16:00:00,
2013-08-06 11:03:00,66.9,61.6,29.65,SE,140,0.0,0.0,83,0.00,,SKC,0.00,VWS V14.01,2013-08-06 16:03:00,
2013-08-06 11:08:00,67.1,61.8,29.66,SE,140,0.0,0.0,83,0.00,,SKC,0.00,VWS V14.01,2013-08-06 16:08:00,
2013-08-06 11:13:00,67.2,61.2,29.66,SE,140,0.0,0.0,81,0.00,,SKC,0.00,VWS V14.01,2013-08-06 16:13:00,
2013-08-06 11:18:00,67.3,61.3,29.66,SE,140,0.0,1.0,81,0.00,,SKC,0.00,VWS V14.01,2013-08-06 16:18:00,
2013-08-06 11:23:00,67.1,60.7,29.66,SE,140,0.0,1.0,80,0.00,,SKC,0.00,VWS V14.01,2013-08-06 16:23:00,
2013-08-06 11:28:00,67.2,60.8,29.66,SE,140,0.0,3.0,80,0.00,,SKC,0.00,VWS V14.01,2013-08-06 16:28:00,
2013-08-06 11:30:00,64.9,61.3,29.66,West,259,0.0,1.0,88,0.00,,SKC,0.00,VWS V14.01,2013-08-06 16:30:00,
2013-08-06 11:33:00,67.6,61.2,29.67,SE,140,0.0,0.0,80,0.00,,SKC,0.00,VWS V14.01,2013-08-06 16:33:00,
2013-08-06 11:38:00,67.3,60.9,29.67,SE,140,0.0,0.0,80,0.00,,SKC,0.00,VWS V14.01,2013-08-06 16:38:00,
2013-08-06 11:43:00,67.1,61.4,29.69,SE,140,0.0,0.0,82,0.00,,SKC,0.00,VWS V14.01,2013-08-06 16:43:00,
2013-08-06 11:48:00,66.7,61.4,29.68,SE,141,0.0,0.0,83,0.00,,SKC,0.00,VWS V14.01,2013-08-06 16:48:00,
2013-08-06 11:53:00,66.4,61.4,29.67,SE,141,0.0,0.0,84,0.00,,SKC,0.00,VWS V14.01,2013-08-06 16:53:00,
2013-08-06 11:58:00,66.1,61.1,29.66,SE,141,0.0,1.0,84,0.01,,SKC,0.01,VWS V14.01,2013-08-06 16:58:00,
2013-08-06 12:00:00,66.8,61.5,29.65,SE,140,0.0,5.0,83,0.00,,SKC,0.00,VWS V14.01,2013-08-06 17:00:00,
2013-08-06 12:03:00,65.9,61.3,29.64,SE,139,0.0,5.0,85,0.01,,SKC,0.01,VWS V14.01,2013-08-06 17:03:00,
2013-08-06 12:08:00,65.8,62.2,29.65,SE,139,0.0,5.0,88,0.02,,SKC,0.02,VWS V14.01,2013-08-06 17:08:00,
2013-08-06 12:13:00,65.7,62.7,29.65,SE,139,0.0,5.0,90,0.02,,SKC,0.02,VWS V14.01,2013-08-06 17:13:00,
2013-08-06 12:18:00,65.8,62.8,29.65,SE,141,0.0,5.0,90,0.02,,SKC,0.02,VWS V14.01,2013-08-06 17:18:00,
2013-08-06 12:23:00,65.6,62.3,29.63,SE,139,7.0,8.0,89,0.02,,SKC,0.02,VWS V14.01,2013-08-06 17:23:00,
2013-08-06 12:28:00,65.3,62.0,29.63,SE,139,0.0,9.0,89,0.02,,SKC,0.02,VWS V14.01,2013-08-06 17:28:00,
2013-08-06 12:30:00,65.3,62.3,29.63,SE,138,5.0,9.0,90,0.02,,SKC,0.02,VWS V14.01,2013-08-06 17:30:00,
2013-08-06 12:35:00,65.3,62.6,29.64,SE,137,0.0,6.0,91,0.02,,SKC,0.02,VWS V14.01,2013-08-06 17:35:00,
2013-08-06 12:41:00,65.3,62.9,29.65,SE,137,0.0,6.0,92,0.02,,SKC,0.02,VWS V14.01,2013-08-06 17:41:00,
2013-08-06 12:46:00,65.2,62.8,29.66,SE,137,0.0,6.0,92,0.02,,SKC,0.02,VWS V14.01,2013-08-06 17:46:00,
2013-08-06 12:51:00,65.0,62.6,29.66,SE,137,0.0,6.0,92,0.02,,SKC,0.02,VWS V14.01,2013-08-06 17:51:00,
2013-08-06 12:56:00,64.8,62.4,29.67,SE,137,0.0,6.0,92,0.02,,SKC,0.02,VWS V14.01,2013-08-06 17:56:00,
2013-08-06 13:00:00,66.1,61.5,29.65,SE,140,5.0,6.0,85,0.01,,SKC,0.01,VWS V14.01,2013-08-06 18:00:00,
2013-08-06 13:01:00,64.6,62.2,29.69,SE,137,1.0,1.0,92,0.02,,SKC,0.03,VWS V14.01,2013-08-06 18:01:00,
2013-08-06 13:06:00,64.2,61.8,29.69,SSW,209,2.0,7.0,92,0.09,,SKC,0.10,VWS V14.01,2013-08-06 18:06:00,
2013-08-06 13:11:00,63.7,61.3,29.64,SE,132,4.0,14.0,92,0.23,,SKC,0.24,VWS V14.01,2013-08-06 18:11:00,
2013-08-06 13:16:00,63.2,60.8,29.65,SE,142,0.0,14.0,92,0.25,,SKC,0.26,VWS V14.01,2013-08-06 18:16:00,
2013-08-06 13:21:00,64.2,62.4,29.65,SE,142,2.0,14.0,94,0.25,,SKC,0.26,VWS V14.01,2013-08-06 18:21:00,
2013-08-06 13:26:00,65.4,63.6,29.64,SE,142,4.0,14.0,94,0.25,,SKC,0.26,VWS V14.01,2013-08-06 18:26:00,
2013-08-06 13:30:00,65.3,62.3,29.63,SE,138,5.0,9.0,90,0.02,,SKC,0.02,VWS V14.01,2013-08-06 18:30:00,
2013-08-06 13:31:00,66.1,64.6,29.64,SE,136,7.0,7.0,95,0.24,,SKC,0.26,VWS V14.01,2013-08-06 18:31:00,
2013-08-06 13:36:00,66.0,63.9,29.64,ESE,114,6.0,9.0,93,0.24,,SKC,0.26,VWS V14.01,2013-08-06 18:36:00,
2013-08-06 13:41:00,66.0,63.3,29.63,ESE,111,8.0,9.0,91,0.24,,SKC,0.26,VWS V14.01,2013-08-06 18:41:00,
2013-08-06 13:46:00,65.9,62.6,29.63,ESE,115,7.0,9.0,89,0.24,,SKC,0.26,VWS V14.01,2013-08-06 18:46:00,
2013-08-06 13:51:00,65.7,62.0,29.63,ESE,119,6.0,9.0,88,0.24,,SKC,0.26,VWS V14.01,2013-08-06 18:51:00,
2013-08-06 13:56:00,65.6,62.0,29.62,ESE,122,6.0,11.0,88,0.24,,SKC,0.26,VWS V14.01,2013-08-06 18:56:00,
2013-08-06 14:00:00,64.6,62.2,29.68,SE,137,1.0,6.0,92,0.03,,SKC,0.03,VWS V14.01,2013-08-06 19:00:00,
2013-08-06 14:01:00,65.7,62.0,29.62,ESE,117,8.0,8.0,88,0.23,,SKC,0.26,VWS V14.01,2013-08-06 19:01:00,
2013-08-06 14:06:00,66.0,62.3,29.62,ESE,103,6.0,10.0,88,0.23,,SKC,0.26,VWS V14.01,2013-08-06 19:06:00,
2013-08-06 14:11:00,66.6,62.6,29.62,ESE,103,6.0,10.0,87,0.23,,SKC,0.26,VWS V14.01,2013-08-06 19:11:00,
2013-08-06 14:16:00,67.3,63.0,29.61,ESE,103,7.0,10.0,86,0.23,,SKC,0.26,VWS V14.01,2013-08-06 19:16:00,
2013-08-06 14:21:00,68.1,64.1,29.61,ESE,107,4.0,10.0,87,0.23,,SKC,0.26,VWS V14.01,2013-08-06 19:21:00,
2013-08-06 14:26:00,68.9,62.8,29.61,SE,129,5.0,10.0,81,0.23,,SKC,0.26,VWS V14.01,2013-08-06 19:26:00,
2013-08-06 14:30:00,66.1,64.6,29.64,SE,138,6.0,14.0,95,0.25,,SKC,0.26,VWS V14.01,2013-08-06 19:30:00,
2013-08-06 14:31:00,69.7,62.9,29.60,SE,126,6.0,7.0,79,0.00,,SKC,0.26,VWS V14.01,2013-08-06 19:31:00,
2013-08-06 14:36:00,70.3,62.4,29.60,SE,137,8.0,9.0,76,0.00,,SKC,0.26,VWS V14.01,2013-08-06 19:36:00,
2013-08-06 14:41:00,70.7,61.6,29.60,SE,142,8.0,9.0,73,0.00,,SKC,0.26,VWS V14.01,2013-08-06 19:41:00,
2013-08-06 14:46:00,71.1,62.4,29.60,ESE,123,8.0,9.0,74,0.00,,SKC,0.26,VWS V14.01,2013-08-06 19:46:00,
2013-08-06 14:51:00,71.3,62.6,29.60,SE,128,6.0,9.0,74,0.00,,SKC,0.26,VWS V14.01,2013-08-06 19:51:00,
2013-08-06 14:57:00,71.6,62.9,29.60,SE,130,5.0,9.0,74,0.00,,SKC,0.26,VWS V14.01,2013-08-06 19:57:00,
2013-08-06 15:00:00,65.7,62.0,29.62,ESE,117,7.0,11.0,88,0.24,,SKC,0.26,VWS V14.01,2013-08-06 20:00:00,
2013-08-06 15:02:00,71.9,62.4,29.60,SE,128,6.0,8.0,72,0.00,,SKC,0.26,VWS V14.01,2013-08-06 20:02:00,
2013-08-06 15:07:00,71.9,62.4,29.60,SE,128,5.0,8.0,72,0.00,,SKC,0.26,VWS V14.01,2013-08-06 20:07:00,
2013-08-06 15:12:00,71.9,62.4,29.60,SE,128,6.0,8.0,72,0.00,,SKC,0.26,VWS V14.01,2013-08-06 20:12:00,
2013-08-06 15:17:00,71.8,62.7,29.60,SE,128,5.0,8.0,73,0.00,,SKC,0.26,VWS V14.01,2013-08-06 20:17:00,
2013-08-06 15:22:00,71.9,63.2,29.60,SE,133,4.0,8.0,74,0.00,,SKC,0.26,VWS V14.01,2013-08-06 20:22:00,
2013-08-06 15:27:00,72.0,63.7,29.60,SE,133,4.0,8.0,75,0.00,,SKC,0.26,VWS V14.01,2013-08-06 20:27:00,
2013-08-06 15:30:00,69.6,62.8,29.60,SE,126,5.0,10.0,79,0.23,,SKC,0.26,VWS V14.01,2013-08-06 20:30:00,
2013-08-06 15:32:00,72.1,63.8,29.60,SE,133,4.0,6.0,75,0.00,,SKC,0.26,VWS V14.01,2013-08-06 20:32:00,
2013-08-06 15:37:00,72.2,63.5,29.60,SE,133,4.0,6.0,74,0.00,,SKC,0.26,VWS V14.01,2013-08-06 20:37:00,
2013-08-06 15:42:00,72.1,63.8,29.60,SE,133,0.0,6.0,75,0.00,,SKC,0.26,VWS V14.01,2013-08-06 20:42:00,
2013-08-06 15:47:00,72.0,63.7,29.59,SE,133,5.0,6.0,75,0.00,,SKC,0.26,VWS V14.01,2013-08-06 20:47:00,
2013-08-06 15:52:00,71.8,63.8,29.59,SE,126,3.0,7.0,76,0.00,,SKC,0.26,VWS V14.01,2013-08-06 20:52:00,
2013-08-06 15:57:00,71.7,64.1,29.59,SE,125,2.0,7.0,77,0.00,,SKC,0.26,VWS V14.01,2013-08-06 20:57:00,
2013-08-06 16:00:00,71.9,62.8,29.60,SE,128,6.0,9.0,73,0.00,,SKC,0.26,VWS V14.01,2013-08-06 21:00:00,
2013-08-06 16:02:00,71.7,64.1,29.59,SE,125,0.0,1.0,77,0.00,,SKC,0.26,VWS V14.01,2013-08-06 21:02:00,
2013-08-06 16:07:00,71.7,64.1,29.59,SE,125,0.0,1.0,77,0.00,,SKC,0.26,VWS V14.01,2013-08-06 21:07:00,
2013-08-06 16:12:00,71.9,64.7,29.58,SE,125,1.0,2.0,78,0.00,,SKC,0.26,VWS V14.01,2013-08-06 21:12:00,
2013-08-06 16:17:00,72.0,65.1,29.58,SE,124,2.0,5.0,79,0.00,,SKC,0.26,VWS V14.01,2013-08-06 21:17:00,
2013-08-06 16:22:00,72.0,64.8,29.59,SE,124,0.0,5.0,78,0.00,,SKC,0.26,VWS V14.01,2013-08-06 21:22:00,
2013-08-06 16:27:00,72.1,65.2,29.58,SE,124,2.0,5.0,79,0.00,,SKC,0.26,VWS V14.01,2013-08-06 21:27:00,
2013-08-06 16:30:00,72.1,63.8,29.60,SE,133,5.0,8.0,75,0.00,,SKC,0.26,VWS V14.01,2013-08-06 21:30:00,
2013-08-06 16:32:00,72.2,65.0,29.58,SE,124,0.0,1.0,78,0.00,,SKC,0.26,VWS V14.01,2013-08-06 21:32:00,
2013-08-06 16:37:00,72.4,65.5,29.58,SE,124,2.0,5.0,79,0.00,,SKC,0.26,VWS V14.01,2013-08-06 21:37:00,
2013-08-06 16:42:00,72.5,65.3,29.58,ESE,123,0.0,5.0,78,0.00,,SKC,0.26,VWS V14.01,2013-08-06 21:42:00,
2013-08-06 16:47:00,72.6,65.7,29.57,ESE,123,0.0,5.0,79,0.00,,SKC,0.26,VWS V14.01,2013-08-06 21:47:00,
2013-08-06 16:52:00,72.8,66.3,29.57,ESE,123,1.0,6.0,80,0.00,,SKC,0.26,VWS V14.01,2013-08-06 21:52:00,
2013-08-06 16:57:00,73.0,66.5,29.57,ESE,123,5.0,7.0,80,0.00,,SKC,0.26,VWS V14.01,2013-08-06 21:57:00,
2013-08-06 17:00:00,71.7,63.7,29.59,SE,125,1.0,7.0,76,0.00,,SKC,0.26,VWS V14.01,2013-08-06 22:00:00,
2013-08-06 17:02:00,73.1,66.6,29.57,ESE,121,6.0,6.0,80,0.00,,SKC,0.26,VWS V14.01,2013-08-06 22:02:00,
2013-08-06 17:07:00,73.3,66.8,29.57,ESE,119,6.0,6.0,80,0.00,,SKC,0.26,VWS V14.01,2013-08-06 22:07:00,
2013-08-06 17:12:00,73.3,66.8,29.57,ESE,108,4.0,6.0,80,0.00,,SKC,0.26,VWS V14.01,2013-08-06 22:12:00,
2013-08-06 17:18:00,73.3,67.1,29.57,ESE,108,4.0,6.0,81,0.00,,SKC,0.26,VWS V14.01,2013-08-06 22:18:00,
2013-08-06 17:23:00,73.2,66.7,29.56,ESE,108,5.0,6.0,80,0.00,,SKC,0.26,VWS V14.01,2013-08-06 22:23:00,
2013-08-06 17:28:00,73.2,67.4,29.56,ESE,105,4.0,7.0,82,0.00,,SKC,0.26,VWS V14.01,2013-08-06 22:28:00,
2013-08-06 17:30:00,72.2,65.0,29.58,SE,124,0.0,5.0,78,0.00,,SKC,0.26,VWS V14.01,2013-08-06 22:30:00,
2013-08-06 17:33:00,73.1,66.6,29.56,East,98,7.0,8.0,80,0.00,,SKC,0.26,VWS V14.01,2013-08-06 22:33:00,
2013-08-06 17:38:00,72.9,66.4,29.56,East,90,4.0,8.0,80,0.00,,SKC,0.26,VWS V14.01,2013-08-06 22:38:00,
2013-08-06 17:43:00,72.8,66.6,29.56,East,90,4.0,8.0,81,0.00,,SKC,0.26,VWS V14.01,2013-08-06 22:43:00,
2013-08-06 17:48:00,72.7,66.9,29.55,East,85,7.0,8.0,82,0.00,,SKC,0.26,VWS V14.01,2013-08-06 22:48:00,
2013-08-06 17:53:00,72.6,66.8,29.54,East,80,9.0,9.0,82,0.00,,SKC,0.26,VWS V14.01,2013-08-06 22:53:00,
2013-08-06 17:58:00,72.4,66.2,29.55,East,80,6.0,9.0,81,0.00,,SKC,0.26,VWS V14.01,2013-08-06 22:58:00,
2013-08-06 18:00:00,73.1,66.6,29.57,ESE,121,4.0,7.0,80,0.00,,SKC,0.26,VWS V14.01,2013-08-06 23:00:00,
2013-08-06 18:03:00,72.3,65.8,29.54,East,80,0.0,2.0,80,0.00,,SKC,0.26,VWS V14.01,2013-08-06 23:03:00,
2013-08-06 18:08:00,72.2,66.1,29.53,East,80,5.0,7.0,81,0.00,,SKC,0.26,VWS V14.01,2013-08-06 23:08:00,
2013-08-06 18:13:00,72.1,65.9,29.52,East,85,5.0,9.0,81,0.00,,SKC,0.26,VWS V14.01,2013-08-06 23:13:00,
2013-08-06 18:18:00,72.1,66.3,29.54,East,85,0.0,9.0,82,0.00,,SKC,0.26,VWS V14.01,2013-08-06 23:18:00,
2013-08-06 18:23:00,72.1,66.3,29.54,East,85,0.0,9.0,82,0.00,,SKC,0.26,VWS V14.01,2013-08-06 23:23:00,
2013-08-06 18:28:00,72.1,67.0,29.54,East,85,0.0,9.0,84,0.00,,SKC,0.26,VWS V14.01,2013-08-06 23:28:00,
2013-08-06 18:30:00,73.2,67.0,29.57,ESE,104,7.0,7.0,81,0.00,,SKC,0.26,VWS V14.01,2013-08-06 23:30:00,
2013-08-06 18:33:00,72.2,67.1,29.54,East,85,0.0,0.0,84,0.00,,SKC,0.26,VWS V14.01,2013-08-06 23:33:00,
2013-08-06 18:38:00,72.2,66.8,29.54,East,85,0.0,1.0,83,0.00,,SKC,0.26,VWS V14.01,2013-08-06 23:38:00,
2013-08-06 18:43:00,72.1,65.9,29.55,NE,36,0.0,7.0,81,0.00,,SKC,0.26,VWS V14.01,2013-08-06 23:43:00,
2013-08-06 18:48:00,72.0,65.9,29.55,NE,44,0.0,7.0,81,0.00,,SKC,0.26,VWS V14.01,2013-08-06 23:48:00,
2013-08-06 18:53:00,71.8,65.7,29.55,NE,41,2.0,7.0,81,0.00,,SKC,0.26,VWS V14.01,2013-08-06 23:53:00,
2013-08-06 18:58:00,71.6,65.5,29.55,NE,41,1.0,7.0,81,0.00,,SKC,0.26,VWS V14.01,2013-08-06 23:58:00,
2013-08-06 19:00:00,72.3,66.2,29.55,East,80,1.0,9.0,81,0.00,,SKC,0.26,VWS V14.01,2013-08-07 00:00:00,
2013-08-06 19:03:00,71.3,65.5,29.56,NE,41,0.0,5.0,82,0.00,,SKC,0.26,VWS V14.01,2013-08-07 00:03:00,
2013-08-06 19:08:00,71.0,65.2,29.56,NNE,32,0.0,5.0,82,0.00,,SKC,0.26,VWS V14.01,2013-08-07 00:08:00,
2013-08-06 19:13:00,70.7,65.3,29.56,NNE,32,0.0,5.0,83,0.00,,SKC,0.26,VWS V14.01,2013-08-07 00:13:00,
2013-08-06 19:18:00,70.3,64.9,29.56,NNE,32,0.0,5.0,83,0.00,,SKC,0.26,VWS V14.01,2013-08-07 00:18:00,
2013-08-06 19:23:00,69.8,64.4,29.56,NNE,30,0.0,7.0,83,0.00,,SKC,0.26,VWS V14.01,2013-08-07 00:23:00,
2013-08-06 19:28:00,69.4,64.4,29.55,NNE,30,0.0,7.0,84,0.00,,SKC,0.26,VWS V14.01,2013-08-07 00:28:00,
2013-08-06 19:30:00,72.1,67.0,29.54,East,85,0.0,9.0,84,0.00,,SKC,0.26,VWS V14.01,2013-08-07 00:30:00,
2013-08-06 19:33:00,68.9,63.5,29.57,North,355,2.0,6.0,83,0.00,,SKC,0.26,VWS V14.01,2013-08-07 00:33:00,
2013-08-06 19:38:00,68.4,63.0,29.54,ENE,74,9.0,10.0,83,0.00,,SKC,0.26,VWS V14.01,2013-08-07 00:38:00,
2013-08-06 19:44:00,68.1,63.1,29.56,ENE,74,0.0,10.0,84,0.00,,SKC,0.26,VWS V14.01,2013-08-07 00:44:00,
2013-08-06 19:49:00,67.9,62.9,29.57,ENE,59,0.0,10.0,84,0.00,,SKC,0.26,VWS V14.01,2013-08-07 00:49:00,
2013-08-06 19:54:00,67.8,63.5,29.57,NE,56,1.0,10.0,86,0.06,,SKC,0.32,VWS V14.01,2013-08-07 00:54:00,
2013-08-06 19:59:00,67.1,63.8,29.61,NE,34,4.0,10.0,89,0.13,,SKC,0.39,VWS V14.01,2013-08-07 00:59:00,
2013-08-06 20:00:00,71.4,65.6,29.55,NE,41,2.0,7.0,82,0.00,,SKC,0.26,VWS V14.01,2013-08-07 01:00:00,
2013-08-06 20:04:00,66.3,63.0,29.60,NNW,344,3.0,7.0,89,0.16,,SKC,0.42,VWS V14.01,2013-08-07 01:04:00,
2013-08-06 20:09:00,65.6,62.9,29.57,NE,51,7.0,8.0,91,0.19,,SKC,0.45,VWS V14.01,2013-08-07 01:09:00,
2013-08-06 20:14:00,65.2,62.8,29.57,NE,51,3.0,8.0,92,0.19,,SKC,0.45,VWS V14.01,2013-08-07 01:14:00,
2013-08-06 20:19:00,64.9,62.5,29.58,NE,51,5.0,8.0,92,0.21,,SKC,0.47,VWS V14.01,2013-08-07 01:19:00,
2013-08-06 20:24:00,64.3,62.2,29.58,East,82,7.0,10.0,93,0.26,,SKC,0.52,VWS V14.01,2013-08-07 01:24:00,
2013-08-06 20:29:00,63.6,61.2,29.58,East,80,6.0,10.0,92,0.26,,SKC,0.52,VWS V14.01,2013-08-07 01:29:00,
2013-08-06 20:30:00,69.3,64.3,29.56,NNE,30,3.0,7.0,84,0.00,,SKC,0.26,VWS V14.01,2013-08-07 01:30:00,
2013-08-06 20:34:00,63.2,61.2,29.60,East,80,0.0,2.0,93,0.27,,SKC,0.53,VWS V14.01,2013-08-07 01:34:00,
2013-08-06 20:39:00,63.0,61.0,29.60,East,80,0.0,2.0,93,0.27,,SKC,0.53,VWS V14.01,2013-08-07 01:39:00,
2013-08-06 20:44:00,62.8,60.8,29.60,East,80,0.0,2.0,93,0.27,,SKC,0.53,VWS V14.01,2013-08-07 01:44:00,
2013-08-06 20:49:00,62.7,60.7,29.61,East,80,0.0,2.0,93,0.28,,SKC,0.54,VWS V14.01,2013-08-07 01:49:00,
2013-08-06 20:52:00,62.7,60.7,29.60,East,80,5.0,5.0,93,0.28,,SKC,0.54,VWS V14.01,2013-08-07 01:52:00,
2013-08-06 20:57:00,62.9,61.2,29.60,East,80,4.0,6.0,94,0.29,,SKC,0.55,VWS V14.01,2013-08-07 01:57:00,
2013-08-06 21:00:00,66.8,63.5,29.61,NNW,346,4.0,10.0,89,0.14,,SKC,0.40,VWS V14.01,2013-08-07 02:00:00,
2013-08-06 21:02:00,63.0,61.2,29.60,East,101,7.0,7.0,94,0.15,,SKC,0.55,VWS V14.01,2013-08-07 02:02:00,
2013-08-06 21:07:00,62.9,61.2,29.58,SE,130,7.0,8.0,94,0.15,,SKC,0.55,VWS V14.01,2013-08-07 02:07:00,
2013-08-06 21:12:00,63.1,61.3,29.57,ESE,113,6.0,9.0,94,0.15,,SKC,0.55,VWS V14.01,2013-08-07 02:12:00,
2013-08-06 21:17:00,63.1,61.3,29.56,ESE,113,6.0,9.0,94,0.15,,SKC,0.55,VWS V14.01,2013-08-07 02:17:00,
2013-08-06 21:22:00,62.9,61.2,29.55,ESE,113,4.0,9.0,94,0.15,,SKC,0.55,VWS V14.01,2013-08-07 02:22:00,
2013-08-06 21:27:00,62.8,61.0,29.55,ESE,112,4.0,9.0,94,0.15,,SKC,0.55,VWS V14.01,2013-08-07 02:27:00,
2013-08-06 21:30:00,63.5,61.4,29.59,East,80,0.0,10.0,93,0.26,,SKC,0.52,VWS V14.01,2013-08-07 02:30:00,
2013-08-06 21:32:00,62.7,61.0,29.54,ESE,112,0.0,6.0,94,0.03,,SKC,0.55,VWS V14.01,2013-08-07 02:32:00,
2013-08-06 21:37:00,62.6,60.8,29.55,ESE,112,0.0,6.0,94,0.03,,SKC,0.55,VWS V14.01,2013-08-07 02:37:00,
2013-08-06 21:42:00,62.5,60.8,29.55,ESE,112,0.0,6.0,94,0.03,,SKC,0.55,VWS V14.01,2013-08-07 02:42:00,
2013-08-06 21:48:00,62.2,60.5,29.55,ESE,112,0.0,6.0,94,0.03,,SKC,0.55,VWS V14.01,2013-08-07 02:48:00,
2013-08-06 21:53:00,62.1,60.4,29.56,ESE,112,0.0,6.0,94,0.03,,SKC,0.55,VWS V14.01,2013-08-07 02:53:00,
2013-08-06 21:58:00,62.0,60.3,29.57,ESE,112,0.0,6.0,94,0.03,,SKC,0.55,VWS V14.01,2013-08-07 02:58:00,
2013-08-06 22:00:00,63.0,61.2,29.60,East,95,5.0,7.0,94,0.29,,SKC,0.55,VWS V14.01,2013-08-07 03:00:00,
2013-08-06 22:03:00,62.0,60.3,29.58,ESE,112,0.0,4.0,94,0.00,,SKC,0.55,VWS V14.01,2013-08-07 03:03:00,
2013-08-06 22:08:00,62.1,60.4,29.58,ESE,112,0.0,4.0,94,0.00,,SKC,0.55,VWS V14.01,2013-08-07 03:08:00,
2013-08-06 22:13:00,62.0,60.6,29.57,ESE,112,1.0,4.0,95,0.00,,SKC,0.55,VWS V14.01,2013-08-07 03:13:00,
2013-08-06 22:18:00,62.0,60.6,29.58,ESE,113,0.0,5.0,95,0.00,,SKC,0.55,VWS V14.01,2013-08-07 03:18:00,
2013-08-06 22:23:00,62.0,60.6,29.58,ESE,113,0.0,5.0,95,0.00,,SKC,0.55,VWS V14.01,2013-08-07 03:23:00,
2013-08-06 22:28:00,62.0,60.6,29.58,ESE,113,0.0,5.0,95,0.00,,SKC,0.55,VWS V14.01,2013-08-07 03:28:00,
2013-08-06 22:30:00,62.8,61.0,29.55,ESE,112,6.0,9.0,94,0.15,,SKC,0.55,VWS V14.01,2013-08-07 03:30:00,
2013-08-06 22:33:00,62.0,60.6,29.59,ESE,113,0.0,0.0,95,0.00,,SKC,0.55,VWS V14.01,2013-08-07 03:33:00,
2013-08-06 22:38:00,62.0,60.6,29.59,ESE,113,0.0,0.0,95,0.00,,SKC,0.55,VWS V14.01,2013-08-07 03:38:00,
2013-08-06 22:43:00,62.0,60.6,29.60,ESE,113,0.0,4.0,95,0.00,,SKC,0.55,VWS V14.01,2013-08-07 03:43:00,
2013-08-06 22:48:00,61.9,60.5,29.60,ESE,113,0.0,4.0,95,0.00,,SKC,0.55,VWS V14.01,2013-08-07 03:48:00,
2013-08-06 22:53:00,62.0,60.6,29.60,ESE,113,0.0,4.0,95,0.00,,SKC,0.55,VWS V14.01,2013-08-07 03:53:00,
2013-08-06 22:58:00,61.9,60.5,29.60,ESE,113,0.0,4.0,95,0.00,,SKC,0.55,VWS V14.01,2013-08-07 03:58:00,
2013-08-06 23:00:00,61.9,60.2,29.58,ESE,112,0.0,6.0,94,0.03,,SKC,0.55,VWS V14.01,2013-08-07 04:00:00,
2013-08-06 23:01:00,61.9,60.5,29.61,ESE,113,0.0,0.0,95,0.00,,SKC,0.55,VWS V14.01,2013-08-07 04:01:00,
2013-08-06 23:02:00,61.9,60.5,29.61,ESE,113,0.0,0.0,95,0.00,,SKC,0.55,VWS V14.01,2013-08-07 04:02:00,
2013-08-06 23:03:00,62.0,60.6,29.61,ESE,113,0.0,0.0,95,0.00,,SKC,0.55,VWS V14.01,2013-08-07 04:03:00,
2013-08-06 23:04:00,62.0,60.6,29.61,ESE,113,0.0,0.0,95,0.00,,SKC,0.55,VWS V14.01,2013-08-07 04:04:00,
2013-08-06 23:05:00,62.0,60.6,29.61,ESE,113,0.0,0.0,95,0.00,,SKC,0.55,VWS V14.01,2013-08-07 04:05:00,
2013-08-06 23:10:00,62.0,60.6,29.61,ESE,113,0.0,0.0,95,0.00,,SKC,0.55,VWS V14.01,2013-08-07 04:10:00,
2013-08-06 23:15:00,62.0,60.6,29.61,ESE,113,0.0,0.0,95,0.00,,SKC,0.55,VWS V14.01,2013-08-07 04:15:00,
2013-08-06 23:20:00,61.9,60.5,29.61,ESE,113,0.0,0.0,95,0.00,,SKC,0.55,VWS V14.01,2013-08-07 04:20:00,
2013-08-06 23:25:00,61.9,60.5,29.61,ESE,113,0.0,0.0,95,0.00,,SKC,0.55,VWS V14.01,2013-08-07 04:25:00,
2013-08-06 23:30:00,61.8,60.4,29.62,ESE,113,0.0,0.0,95,0.00,,SKC,0.55,VWS V14.01,2013-08-07 04:30:00,
2013-08-06 23:35:00,61.7,60.3,29.62,ESE,113,0.0,0.0,95,0.00,,SKC,0.55,VWS V14.01,2013-08-07 04:35:00,
2013-08-06 23:40:00,61.6,60.2,29.62,ESE,113,0.0,0.0,95,0.00,,SKC,0.55,VWS V14.01,2013-08-07 04:40:00,
2013-08-06 23:45:00,61.4,60.0,29.62,ESE,113,0.0,0.0,95,0.00,,SKC,0.55,VWS V14.01,2013-08-07 04:45:00,
2013-08-06 23:50:00,61.3,59.9,29.63,ESE,113,0.0,0.0,95,0.00,,SKC,0.55,VWS V14.01,2013-08-07 04:50:00,
2013-08-06 23:55:00,61.2,59.8,29.62,ESE,113,1.0,1.0,95,0.00,,SKC,0.55,VWS V14.01,2013-08-07 04:55:00,